Big Bear Station Historical Data
Daily Summary for March 7, 2017 Units:  English    Metric   Both
Next Day »
Daily Weekly Monthly Yearly Custom
  High: Low: Average:
Temperature: 55.0 °F 27.5 °F 38.7 °F
Dew Point: 30.8 °F 20.4 °F 25 °F
Humidity: 82% 26% 61%
Wind Speed: 5.3mph 0.0mph 1.6mph
Wind Gust: -999.0mph - -
Wind- - WSW
Pressure: 30.29 in 30.19 in -
Precipitation: 0.00 in    
Historical Graphs
 
 
Tabular Data for March 7, 2017
Time Temperature Dew Point Pressure Wind Wind Speed Wind Gust Humidity Rainfall Rate (Hourly)
00:15 29.7 °F 20.4 °F 30.19 in SSE 2.7 mph -999.0 mph 68% 0 in
00:30 29.7 °F 21.1 °F 30.20 in SSW 1.7 mph -999.0 mph 70% 0 in
00:45 29.1 °F 20.9 °F 30.20 in South 1.7 mph -999.0 mph 71% 0 in
01:00 29.8 °F 21.9 °F 30.20 in SSE 1.7 mph -999.0 mph 72% 0 in
01:16 30.7 °F 21.4 °F 30.20 in SSE 2.7 mph -999.0 mph 68% 0 in
01:31 30.9 °F 22.3 °F 30.21 in SSE 4.2 mph -999.0 mph 70% 0 in
01:46 30.4 °F 22.5 °F 30.21 in SSE 2.2 mph -999.0 mph 72% 0 in
02:01 30.2 °F 22.9 °F 30.20 in South 3.2 mph -999.0 mph 74% 0 in
02:16 30.0 °F 22.1 °F 30.21 in Calm   -999.0 mph 72% 0 in
02:32 29.7 °F 21.8 °F 30.21 in SW 1.1 mph -999.0 mph 72% 0 in
02:47 29.7 °F 21.4 °F 30.21 in Calm   -999.0 mph 71% 0 in
03:02 29.8 °F 21.9 °F 30.21 in Calm   -999.0 mph 72% 0 in
03:17 29.7 °F 21.8 °F 30.21 in Calm   -999.0 mph 72% 0 in
03:33 29.3 °F 22.0 °F 30.21 in SSE 2.2 mph -999.0 mph 74% 0 in
03:48 29.7 °F 21.8 °F 30.21 in SSE 2.7 mph -999.0 mph 72% 0 in
04:03 29.7 °F 22.7 °F 30.21 in SSW 1.7 mph -999.0 mph 75% 0 in
04:18 29.1 °F 22.8 °F 30.22 in SSE 1.7 mph -999.0 mph 77% 0 in
04:34 28.6 °F 23.2 °F 30.21 in Calm   -999.0 mph 80% 0 in
04:49 28.4 °F 23.6 °F 30.22 in SSW 2.2 mph -999.0 mph 82% 0 in
05:04 28.6 °F 23.5 °F 30.22 in South 2.2 mph -999.0 mph 81% 0 in
05:19 28.4 °F 22.7 °F 30.22 in Calm   -999.0 mph 79% 0 in
05:35 28.4 °F 22.4 °F 30.23 in Calm   -999.0 mph 78% 0 in
05:50 28.0 °F 22.3 °F 30.23 in Calm   -999.0 mph 79% 0 in
06:05 27.7 °F 21.7 °F 30.24 in Calm   -999.0 mph 78% 0 in
06:20 27.5 °F 22.1 °F 30.24 in South 1.1 mph -999.0 mph 80% 0 in
06:35 27.7 °F 22.3 °F 30.24 in SSE 1.1 mph -999.0 mph 80% 0 in
06:51 27.9 °F 22.5 °F 30.25 in SE 2.2 mph -999.0 mph 80% 0 in
07:06 28.6 °F 23.8 °F 30.25 in South 1.7 mph -999.0 mph 82% 0 in
07:22 29.3 °F 23.9 °F 30.25 in Calm   -999.0 mph 80% 0 in
07:37 30.4 °F 24.7 °F 30.25 in Calm   -999.0 mph 79% 0 in
07:52 31.1 °F 25.3 °F 30.26 in South 3.2 mph -999.0 mph 79% 0 in
08:07 32.5 °F 26.7 °F 30.26 in Calm   -999.0 mph 79% 0 in
08:22 34.7 °F 29.2 °F 30.26 in Calm   -999.0 mph 80% 0 in
08:38 35.8 °F 29.3 °F 30.26 in Calm   -999.0 mph 77% 0 in
08:53 38.3 °F 29.0 °F 30.26 in Calm   -999.0 mph 69% 0 in
09:08 41.2 °F 29.9 °F 30.26 in Calm   -999.0 mph 64% 0 in
09:23 44.8 °F 28.7 °F 30.26 in Calm   -999.0 mph 53% 0 in
09:38 47.5 °F 22.5 °F 30.26 in Calm   -999.0 mph 37% 0 in
09:54 50.7 °F 21.9 °F 30.26 in NE 2.2 mph -999.0 mph 32% 0 in
10:09 53.4 °F 23.5 °F 30.26 in NNW 1.7 mph -999.0 mph 31% 0 in
10:24 54.1 °F 21.7 °F 30.26 in North 2.7 mph -999.0 mph 28% 0 in
10:39 55.0 °F 20.7 °F 30.26 in WNW 2.2 mph -999.0 mph 26% 0 in
10:55 54.9 °F 26.3 °F 30.26 in NW 3.7 mph -999.0 mph 33% 0 in
11:10 54.7 °F 26.9 °F 30.27 in NNW 2.7 mph -999.0 mph 34% 0 in
11:26 54.7 °F 26.1 °F 30.27 in North 3.7 mph -999.0 mph 33% 0 in
11:41 54.0 °F 27.6 °F 30.27 in NNW 4.7 mph -999.0 mph 36% 0 in
11:57 54.0 °F 28.3 °F 30.26 in SSW 2.7 mph -999.0 mph 37% 0 in
12:12 54.1 °F 28.4 °F 30.26 in NW 5.3 mph -999.0 mph 37% 0 in
12:28 55.0 °F 28.5 °F 30.26 in WNW 2.7 mph -999.0 mph 36% 0 in
12:43 54.0 °F 30.8 °F 30.26 in NW 3.7 mph -999.0 mph 41% 0 in
12:58 52.0 °F 25.9 °F 30.26 in NNW 4.7 mph -999.0 mph 36% 0 in
13:14 51.1 °F 26.4 °F 30.26 in NW 4.7 mph -999.0 mph 38% 0 in
13:29 51.1 °F 25.1 °F 30.25 in NNW 4.2 mph -999.0 mph 36% 0 in
13:44 51.6 °F 27.4 °F 30.25 in WNW 3.7 mph -999.0 mph 39% 0 in
14:00 51.6 °F 27.4 °F 30.25 in WNW 3.2 mph -999.0 mph 39% 0 in
14:15 51.3 °F 27.2 °F 30.25 in NW 3.7 mph -999.0 mph 39% 0 in
14:30 50.2 °F 29.1 °F 30.25 in NW 3.7 mph -999.0 mph 44% 0 in
14:45 51.4 °F 30.2 °F 30.25 in NNW 3.7 mph -999.0 mph 44% 0 in
15:01 50.9 °F 28.0 °F 30.25 in NW 3.7 mph -999.0 mph 41% 0 in
15:16 50.7 °F 29.0 °F 30.25 in NW 2.2 mph -999.0 mph 43% 0 in
15:31 50.0 °F 29.5 °F 30.25 in NW 2.7 mph -999.0 mph 45% 0 in
15:46 49.3 °F 29.9 °F 30.25 in NW 2.7 mph -999.0 mph 47% 0 in
16:01 48.2 °F 29.9 °F 30.25 in NNW 3.7 mph -999.0 mph 49% 0 in
16:17 48.2 °F 29.9 °F 30.25 in Calm   -999.0 mph 49% 0 in
16:32 48.2 °F 30.4 °F 30.25 in Calm   -999.0 mph 50% 0 in
16:47 46.4 °F 30.2 °F 30.25 in WNW 4.2 mph -999.0 mph 53% 0 in
17:02 45.3 °F 28.7 °F 30.25 in NW 1.1 mph -999.0 mph 52% 0 in
17:18 44.4 °F 25.9 °F 30.26 in Calm   -999.0 mph 48% 0 in
17:33 43.3 °F 26.4 °F 30.26 in Calm   -999.0 mph 51% 0 in
17:48 42.4 °F 23.6 °F 30.26 in ESE 1.1 mph -999.0 mph 47% 0 in
18:03 41.5 °F 24.2 °F 30.26 in Calm   -999.0 mph 50% 0 in
18:18 40.1 °F 26.1 °F 30.26 in South 2.2 mph -999.0 mph 57% 0 in
18:34 39.6 °F 22.9 °F 30.26 in South 1.7 mph -999.0 mph 51% 0 in
18:49 38.8 °F 21.3 °F 30.26 in Calm   -999.0 mph 49% 0 in
19:04 38.1 °F 24.6 °F 30.27 in South 2.2 mph -999.0 mph 58% 0 in
19:19 37.2 °F 23.4 °F 30.27 in Calm   -999.0 mph 57% 0 in
19:35 36.3 °F 24.5 °F 30.27 in Calm   -999.0 mph 62% 0 in
19:50 36.0 °F 25.7 °F 30.27 in SSE 2.7 mph -999.0 mph 66% 0 in
20:05 35.2 °F 24.6 °F 30.28 in Calm   -999.0 mph 65% 0 in
20:20 34.9 °F 24.7 °F 30.28 in South 2.2 mph -999.0 mph 66% 0 in
20:36 34.2 °F 24.7 °F 30.28 in SSE 1.7 mph -999.0 mph 68% 0 in
20:51 34.0 °F 23.8 °F 30.29 in SSE 1.7 mph -999.0 mph 66% 0 in
21:06 33.6 °F 24.2 °F 30.29 in Calm   -999.0 mph 68% 0 in
21:21 33.6 °F 24.5 °F 30.28 in Calm   -999.0 mph 69% 0 in
21:36 33.3 °F 25.2 °F 30.29 in Calm   -999.0 mph 72% 0 in
21:52 32.7 °F 24.3 °F 30.29 in Calm   -999.0 mph 71% 0 in
22:07 32.5 °F 24.5 °F 30.29 in Calm   -999.0 mph 72% 0 in
22:22 32.2 °F 24.5 °F 30.29 in Calm   -999.0 mph 73% 0 in
22:37 32.0 °F 24.0 °F 30.29 in Calm   -999.0 mph 72% 0 in
22:52 31.8 °F 24.8 °F 30.29 in Calm   -999.0 mph 75% 0 in
23:08 31.1 °F 25.0 °F 30.29 in Calm   -999.0 mph 78% 0 in
23:23 31.5 °F 25.7 °F 30.29 in Calm   -999.0 mph 79% 0 in
23:38 30.7 °F 25.3 °F 30.29 in Calm   -999.0 mph 80% 0 in
23:53 31.1 °F 25.7 °F 30.29 in Calm   -999.0 mph 80% 0 in
Big Bear CA Weather